TimeCDT,TemperatureF,Dew PointF,Humidity,Sea Level PressureIn,VisibilityMPH,Wind Direction,Wind SpeedMPH,Gust SpeedMPH,PrecipitationIn,Events,Conditions,WindDirDegrees,DateUTC
12:15 AM,53.6,42.8,67,30.10,10.0,Calm,Calm,-,N/A,,Clear,0,2012-09-20 05:15:00
12:35 AM,51.8,42.8,71,30.10,10.0,Calm,Calm,-,N/A,,Clear,0,2012-09-20 05:35:00
12:55 AM,53.6,42.8,67,30.09,10.0,South,3.5,-,N/A,,Clear,170,2012-09-20 05:55:00
1:15 AM,51.8,42.8,71,30.09,10.0,Calm,Calm,-,N/A,,Clear,0,2012-09-20 06:15:00
1:35 AM,53.6,42.8,67,30.09,10.0,Calm,Calm,-,N/A,,Clear,0,2012-09-20 06:35:00
1:55 AM,51.8,42.8,71,30.08,10.0,Calm,Calm,-,N/A,,Clear,0,2012-09-20 06:55:00
2:15 AM,51.8,41.0,67,30.08,10.0,Calm,Calm,-,N/A,,Clear,0,2012-09-20 07:15:00
2:35 AM,51.8,42.8,71,30.08,10.0,Calm,Calm,-,N/A,,Clear,0,2012-09-20 07:35:00
2:55 AM,51.8,42.8,71,30.08,10.0,Calm,Calm,-,N/A,,Clear,0,2012-09-20 07:55:00
3:15 AM,51.8,42.8,71,30.08,10.0,Calm,Calm,-,N/A,,Clear,0,2012-09-20 08:15:00
3:35 AM,51.8,42.8,71,30.08,10.0,Calm,Calm,-,N/A,,Clear,0,2012-09-20 08:35:00
3:55 AM,50.0,41.0,71,30.07,10.0,Calm,Calm,-,N/A,,Clear,0,2012-09-20 08:55:00
4:15 AM,50.0,41.0,71,30.08,10.0,Calm,Calm,-,N/A,,Clear,0,2012-09-20 09:15:00
4:35 AM,50.0,42.8,76,30.08,10.0,Calm,Calm,-,N/A,,Clear,0,2012-09-20 09:35:00
5:15 AM,48.2,39.2,71,30.09,10.0,Calm,Calm,-,N/A,,Clear,0,2012-09-20 10:15:00
5:35 AM,48.2,39.2,71,30.09,10.0,Calm,Calm,-,N/A,,Clear,0,2012-09-20 10:35:00
5:55 AM,48.2,39.2,71,30.09,10.0,South,3.5,-,N/A,,Clear,170,2012-09-20 10:55:00
6:15 AM,48.2,41.0,76,30.09,10.0,South,3.5,-,N/A,,Clear,170,2012-09-20 11:15:00
6:35 AM,51.8,41.0,67,30.09,10.0,SSE,4.6,-,N/A,,Clear,160,2012-09-20 11:35:00
6:55 AM,53.6,42.8,67,30.09,10.0,South,6.9,-,N/A,,Clear,170,2012-09-20 11:55:00
7:15 AM,53.6,42.8,67,30.09,10.0,South,5.8,-,N/A,,Clear,170,2012-09-20 12:15:00
7:35 AM,53.6,42.8,67,30.09,10.0,South,5.8,-,N/A,,Clear,170,2012-09-20 12:35:00
7:55 AM,55.4,42.8,63,30.09,10.0,South,6.9,-,N/A,,Clear,170,2012-09-20 12:55:00
8:15 AM,57.2,44.6,63,30.09,10.0,SSW,3.5,-,N/A,,Clear,200,2012-09-20 13:15:00
8:35 AM,60.8,44.6,55,30.09,10.0,Calm,Calm,-,N/A,,Clear,0,2012-09-20 13:35:00
8:55 AM,62.6,46.4,55,30.09,10.0,South,3.5,-,N/A,,Clear,190,2012-09-20 13:55:00
9:15 AM,64.4,48.2,56,30.09,10.0,South,5.8,-,N/A,,Clear,170,2012-09-20 14:15:00
9:35 AM,66.2,48.2,52,30.08,10.0,South,4.6,-,N/A,,Clear,190,2012-09-20 14:35:00
9:55 AM,69.8,48.2,46,30.08,10.0,SSW,8.1,-,N/A,,Clear,200,2012-09-20 14:55:00
10:15 AM,71.6,48.2,43,30.08,8.0,SSW,9.2,-,N/A,,Clear,210,2012-09-20 15:15:00
10:55 AM,75.2,48.2,38,30.07,10.0,SW,9.2,-,N/A,,Clear,220,2012-09-20 15:55:00
11:15 AM,75.2,48.2,38,30.07,10.0,WSW,13.8,-,N/A,,Clear,250,2012-09-20 16:15:00
11:35 AM,75.2,48.2,38,30.07,10.0,SW,11.5,17.3,N/A,,Clear,230,2012-09-20 16:35:00
11:55 AM,77.0,48.2,36,30.06,10.0,SW,9.2,18.4,N/A,,Clear,230,2012-09-20 16:55:00
12:15 PM,78.8,50.0,36,30.06,10.0,SW,10.4,-,N/A,,Clear,220,2012-09-20 17:15:00
12:35 PM,78.8,50.0,36,30.05,10.0,SW,8.1,-,N/A,,Clear,230,2012-09-20 17:35:00
12:55 PM,78.8,50.0,36,30.05,10.0,SW,9.2,-,N/A,,Clear,230,2012-09-20 17:55:00
1:15 PM,80.6,50.0,34,30.04,10.0,WSW,11.5,17.3,N/A,,Clear,240,2012-09-20 18:15:00
1:35 PM,80.6,51.8,37,30.02,10.0,SSW,6.9,-,N/A,,Clear,210,2012-09-20 18:35:00
1:55 PM,80.6,51.8,37,30.01,10.0,SW,10.4,-,N/A,,Clear,220,2012-09-20 18:55:00
2:15 PM,80.6,51.8,37,30.01,10.0,SSW,8.1,-,N/A,,Clear,200,2012-09-20 19:15:00
2:35 PM,82.4,51.8,35,30.00,10.0,South,9.2,-,N/A,,Clear,180,2012-09-20 19:35:00
2:55 PM,82.4,51.8,35,29.99,10.0,WSW,11.5,-,N/A,,Clear,240,2012-09-20 19:55:00
3:15 PM,82.4,51.8,35,29.99,10.0,SW,6.9,-,N/A,,Clear,230,2012-09-20 20:15:00
3:35 PM,82.4,51.8,35,29.99,10.0,WSW,12.7,-,N/A,,Clear,240,2012-09-20 20:35:00
3:55 PM,82.4,51.8,35,29.99,10.0,West,12.7,16.1,N/A,,Clear,260,2012-09-20 20:55:00
4:15 PM,82.4,51.8,35,29.98,10.0,SW,8.1,-,N/A,,Clear,220,2012-09-20 21:15:00
4:35 PM,82.4,51.8,35,29.98,10.0,SW,10.4,-,N/A,,Clear,230,2012-09-20 21:35:00
4:55 PM,80.6,53.6,39,29.98,10.0,SW,9.2,-,N/A,,Mostly Cloudy,220,2012-09-20 21:55:00
5:15 PM,80.6,51.8,37,29.98,10.0,South,6.9,-,N/A,,Overcast,190,2012-09-20 22:15:00
5:35 PM,80.6,53.6,39,29.98,10.0,SW,4.6,-,N/A,,Partly Cloudy,230,2012-09-20 22:35:00
5:55 PM,80.6,53.6,39,29.98,10.0,SSW,5.8,-,N/A,,Clear,210,2012-09-20 22:55:00
6:15 PM,78.8,53.6,42,29.98,10.0,South,3.5,-,N/A,,Clear,180,2012-09-20 23:15:00
6:35 PM,75.2,53.6,47,29.98,10.0,South,3.5,-,N/A,,Partly Cloudy,190,2012-09-20 23:35:00
6:55 PM,73.4,53.6,50,29.99,10.0,South,3.5,-,N/A,,Clear,180,2012-09-20 23:55:00
7:15 PM,73.4,51.8,47,29.99,10.0,SSW,4.6,-,N/A,,Clear,200,2012-09-21 00:15:00
7:35 PM,71.6,51.8,50,29.99,10.0,SSW,3.5,-,N/A,,Clear,210,2012-09-21 00:35:00
7:55 PM,71.6,51.8,50,30.00,10.0,South,3.5,-,N/A,,Clear,180,2012-09-21 00:55:00
8:15 PM,69.8,51.8,53,30.00,10.0,SSW,3.5,-,N/A,,Clear,200,2012-09-21 01:15:00
8:35 PM,68.0,51.8,56,30.00,10.0,Calm,Calm,-,N/A,,Clear,0,2012-09-21 01:35:00
8:55 PM,69.8,51.8,53,30.01,10.0,South,3.5,-,N/A,,Clear,170,2012-09-21 01:55:00
9:15 PM,68.0,51.8,56,30.01,10.0,South,3.5,-,N/A,,Clear,170,2012-09-21 02:15:00
9:35 PM,64.4,51.8,64,30.01,10.0,Calm,Calm,-,N/A,,Clear,0,2012-09-21 02:35:00
9:55 PM,64.4,51.8,64,30.02,10.0,South,3.5,-,N/A,,Clear,170,2012-09-21 02:55:00
10:15 PM,64.4,51.8,64,30.02,10.0,Calm,Calm,-,N/A,,Clear,0,2012-09-21 03:15:00
10:35 PM,62.6,51.8,68,30.02,10.0,Calm,Calm,-,N/A,,Clear,0,2012-09-21 03:35:00
10:55 PM,62.6,51.8,68,30.02,10.0,Calm,Calm,-,N/A,,Clear,0,2012-09-21 03:55:00
11:15 PM,60.8,51.8,72,30.02,10.0,Calm,Calm,-,N/A,,Clear,0,2012-09-21 04:15:00
11:35 PM,60.8,51.8,72,30.03,10.0,Calm,Calm,-,N/A,,Clear,0,2012-09-21 04:35:00
11:55 PM,60.8,51.8,72,30.03,10.0,Calm,Calm,-,N/A,,Clear,0,2012-09-21 04:55:00